Owls Head, ME

9:49 PM EST on December 04, 2016 (GMT -0500)
Knox County Regional

Weather History for KRKD - July, 2012

Change the Weather History Date:

Thursday, July 5, 2012

  Actual Average Record
Temperature  
Mean Temperature 71 °F -  
Max Temperature 78 °F 70 °F 89 °F (1999)
Min Temperature 64 °F 54 °F 48 °F (2015)
Cooling Degree Days 6    
Growing Degree Days 21 (Base 50)    
Moisture  
Dew Point 65 °F    
Average Humidity 83    
Maximum Humidity 100    
Minimum Humidity 61    
Precipitation  
Precipitation 0.06 in - - ()
Sea Level Pressure  
Sea Level Pressure 29.72 in    
Wind  
Wind Speed 4 mph (NNE)    
Max Wind Speed 12 mph    
Max Gust Speed 17 mph    
Visibility 6 miles    
Events Thunderstorm    
Averages and records for this station are not official NWS values.
T = Trace of Precipitation, MM = Missing Value Source: NWS Daily Summary

Daily Weather History Graph

Daily Weather History Graph

Search for Another Location

Airport or City:

Trip Planner

Search our weather history database for the weather conditions in past years. The results will help you decide how hot, cold, wet, or windy it might be!

Date:

Astronomy

Jul. 05, 2012 Rise Set
Actual Time 4:59 AM EDT 8:22 PM EDT
Civil Twilight 4:23 AM EDT 8:57 PM EDT
Nautical Twilight 3:37 AM EDT 9:44 PM EDT
Astronomical Twilight 2:38 AM EDT 10:42 PM EDT
Moon 9:29 PM EDT 7:13 AM EDT
Length of Visible Light 16h 33m
Length of Day
15h 22m
Waning Gibbous, 95% of the Moon is Illuminated
Jul 5
Waning Gibbous
Jul 10
Last Quarter
Jul 19
New
Jul 26
First Quarter
Aug 1
Full

Hourly Weather History & Observations

Time (EDT) Temp. Dew Point Humidity Pressure Visibility Wind Dir Wind Speed Gust Speed Precip Events Conditions
12:35 AM - - N/A% 29.67 in 0.2 mi SSE 4.6 mph - N/A   Overcast
12:55 AM - - N/A% 29.66 in 0.5 mi Calm Calm - N/A   Overcast
1:15 AM - - N/A% 29.66 in 0.8 mi ENE 3.5 mph - N/A   Overcast
1:35 AM - - N/A% 29.66 in 0.5 mi East 4.6 mph - N/A   Overcast
1:55 AM - - N/A% 29.66 in 0.2 mi East 3.5 mph - N/A   Overcast
2:15 AM - - N/A% 29.65 in 0.2 mi NE 3.5 mph - N/A   Overcast
2:35 AM - - N/A% 29.65 in 0.2 mi Calm Calm - N/A   Overcast
2:55 AM - - N/A% 29.65 in 0.2 mi Calm Calm - N/A Thunderstorm Thunderstorm
3:15 AM - - N/A% 29.64 in 0.8 mi NE 3.5 mph - 0.06 in Thunderstorm Overcast
3:35 AM - - N/A% 29.64 in 0.2 mi Calm Calm - 0.06 in   Overcast
3:55 AM - - N/A% 29.65 in 0.2 mi NNE 3.5 mph - 0.06 in   Overcast
4:15 AM - - N/A% 29.65 in 0.2 mi North 4.6 mph - N/A   Overcast
4:35 AM - - N/A% 29.65 in 0.2 mi NNE 3.5 mph - N/A   Overcast
4:55 AM - - N/A% 29.65 in 0.2 mi NNE 4.6 mph - N/A   Overcast
5:15 AM - - N/A% 29.66 in 0.2 mi NNE 3.5 mph - N/A   Overcast
5:35 AM - - N/A% 29.67 in 0.2 mi Calm Calm - N/A   Overcast
5:55 AM - - N/A% 29.67 in 0.2 mi NNW 3.5 mph - N/A   Overcast
6:15 AM - - N/A% 29.66 in 0.2 mi Calm Calm - N/A   Overcast
6:35 AM - - N/A% 29.66 in 0.2 mi ENE 3.5 mph - N/A   Overcast
6:55 AM - - N/A% 29.68 in 0.2 mi ENE 3.5 mph - N/A   Overcast
7:15 AM 64.4 °F 64.4 °F 100% 29.69 in 0.5 mi NNE 3.5 mph - N/A   Overcast
7:35 AM 64.4 °F 64.4 °F 100% 29.70 in 1.5 mi NNE 3.5 mph - N/A   Overcast
7:55 AM 64.4 °F 64.4 °F 100% 29.71 in 5.0 mi Calm Calm - N/A   Overcast
8:15 AM - - N/A% 29.70 in 5.0 mi Calm Calm - N/A   Overcast
10:15 AM 66.2 °F 66.2 °F 100% 29.72 in 6.0 mi NNE 5.8 mph - N/A   Overcast
10:35 AM 69.8 °F 68.0 °F 94% 29.73 in 10.0 mi NNE 4.6 mph - N/A   Overcast
10:55 AM 71.6 °F 69.8 °F 94% 29.73 in 10.0 mi NE 4.6 mph - N/A   Mostly Cloudy
11:15 AM 71.6 °F 68.0 °F 88% 29.73 in 10.0 mi NNE 4.6 mph - N/A   Mostly Cloudy
11:35 AM 73.4 °F 68.0 °F 83% 29.73 in 8.0 mi NNE 6.9 mph - N/A   Mostly Cloudy
11:55 AM 73.4 °F 69.8 °F 88% 29.73 in 10.0 mi North 6.9 mph - N/A   Scattered Clouds
12:35 PM 73.4 °F 68.0 °F 83% 29.73 in 10.0 mi NNE 10.4 mph - N/A   Partly Cloudy
12:55 PM 75.2 °F 69.8 °F 83% 29.72 in 10.0 mi NNE 10.4 mph 16.1 mph N/A   Clear
1:15 PM 75.2 °F 66.2 °F 73% 29.73 in 10.0 mi NNE 10.4 mph - N/A   Clear
1:35 PM 77.0 °F 66.2 °F 69% 29.73 in 10.0 mi NNE 11.5 mph - N/A   Clear
1:55 PM 77.0 °F 66.2 °F 69% 29.73 in 10.0 mi NE 10.4 mph - N/A   Partly Cloudy
2:15 PM 77.0 °F 66.2 °F 69% 29.72 in 10.0 mi NE 9.2 mph - N/A   Clear
2:35 PM 77.0 °F 64.4 °F 65% 29.73 in 10.0 mi NNE 6.9 mph - N/A   Clear
2:55 PM 77.0 °F 64.4 °F 65% 29.73 in 10.0 mi NNE 8.1 mph - N/A   Clear
3:15 PM 78.8 °F 66.2 °F 65% 29.73 in 10.0 mi NE 3.5 mph - N/A   Clear
3:35 PM 78.8 °F 66.2 °F 65% 29.73 in 10.0 mi NNE 8.1 mph - N/A   Clear
3:55 PM 78.8 °F 66.2 °F 65% 29.73 in 10.0 mi NE 8.1 mph - N/A   Clear
4:15 PM 78.8 °F 66.2 °F 65% 29.74 in 10.0 mi NE 9.2 mph - N/A   Clear
4:35 PM 78.8 °F 66.2 °F 65% 29.74 in 10.0 mi NE 10.4 mph - N/A   Clear
4:55 PM 78.8 °F 66.2 °F 65% 29.74 in 10.0 mi NE 9.2 mph - N/A   Partly Cloudy
5:15 PM 78.8 °F 64.4 °F 61% 29.74 in 10.0 mi NE 9.2 mph 16.1 mph N/A   Partly Cloudy
5:35 PM 77.0 °F 64.4 °F 65% 29.75 in 10.0 mi NE 10.4 mph 17.3 mph N/A   Partly Cloudy
5:55 PM 77.0 °F 64.4 °F 65% 29.75 in 10.0 mi NE 9.2 mph - N/A   Clear
6:35 PM 71.6 °F 64.4 °F 78% 29.77 in 10.0 mi East 5.8 mph - N/A   Clear
6:55 PM 69.8 °F 64.4 °F 83% 29.77 in 10.0 mi East 4.6 mph - N/A   Clear
7:15 PM 69.8 °F 64.4 °F 83% 29.77 in 10.0 mi SE 4.6 mph - N/A   Clear
7:35 PM 66.2 °F 64.4 °F 94% 29.78 in 10.0 mi SSW 3.5 mph - N/A   Clear
7:55 PM 66.2 °F 64.4 °F 94% 29.78 in 10.0 mi WSW 3.5 mph - N/A   Clear
8:15 PM 64.4 °F 64.4 °F 100% 29.79 in 10.0 mi SW 3.5 mph - N/A   Clear
8:35 PM 64.4 °F 62.6 °F 94% 29.79 in 10.0 mi Calm Calm - N/A   Clear
8:55 PM 64.4 °F 62.6 °F 94% 29.79 in 10.0 mi Calm Calm - N/A   Clear
9:15 PM 64.4 °F 62.6 °F 94% 29.79 in 10.0 mi Calm Calm - N/A   Partly Cloudy
9:35 PM 64.4 °F 62.6 °F 94% 29.80 in 10.0 mi Calm Calm - N/A   Mostly Cloudy
9:55 PM 64.4 °F 64.4 °F 100% 29.80 in 10.0 mi West 3.5 mph - N/A   Mostly Cloudy
10:15 PM 64.4 °F 64.4 °F 100% 29.80 in 10.0 mi WNW 3.5 mph - N/A   Mostly Cloudy
10:35 PM 64.4 °F 62.6 °F 94% 29.80 in 10.0 mi WNW 3.5 mph - N/A   Scattered Clouds
10:55 PM 64.4 °F 62.6 °F 94% 29.80 in 10.0 mi West 3.5 mph - N/A   Mostly Cloudy
11:15 PM 66.2 °F 64.4 °F 94% 29.81 in 10.0 mi WNW 5.8 mph - N/A   Overcast
11:35 PM 68.0 °F 66.2 °F 94% 29.81 in 10.0 mi WNW 5.8 mph - N/A   Overcast
11:55 PM 68.0 °F 66.2 °F 94% 29.82 in 10.0 mi WNW 6.9 mph - N/A   Overcast